Location: ??
(35.5052°N, 139.7262°E)
Time: 02:57:20
(UTC+00:00)

Terra - Pass Details

Date: 20 June 2021
Orbit: 701 x 703 km, 98.2° (Epoch: 26 July)

Event Time Altitude Azimuth Distance (km) Brightness Sun altitude
Exits shadow 14:05:29 12° 273° (W) 2,025 4.3 -30.4°
Drops below altitude 10° 14:07:01 10° 292° (WNW) 2,172 4.7 -30.5°
Sets 14:10:45 0° 322° (NW) 3,096 6.0 -30.6°
